Hourly Data Report for October 05, 2015

All times are specified in Local Standard Time (LST). Add 1 hour to adjust for Daylight Saving Time where and when it is observed.

CAPE DORSET A
NUNAVUT

64°13'49.000" N
76°31'30.000" W
48.20 m
2400637
71366
YTE

Download Data

Hourly Data (October 2015)
Hourly Data Report for October 5, 2015
Temp Definition
°C
Dew Point Temp Definition
°C
Rel Hum Definition
%
Wind Dir Definition
10's deg

Wind Spd Definition
km/h
Visibility Definition
km
Stn Press Definition
kPa
Hmdx Definition


Wind Chill Definition


Weather Definition


TIME
00:00 Legend Double Dagger -2.4 -4.4 86 29 5 16.1 101.62   -4 LegendNANA
01:00 Legend Double Dagger -2.5 -4.5 86 28 9 16.1 101.60   -6 LegendNANA
02:00 Legend Double Dagger -2.4 -4.4 86 29 9 16.1 101.58   -6 LegendNANA
03:00 Legend Double Dagger -2.6 -4.0 90 30 9 16.1 101.55   -6 LegendNANA
04:00 Legend Double Dagger -2.7 -3.9 92 35 5 16.1 101.52   -5 LegendNANA
05:00 Legend Double Dagger -3.1 -4.4 91 28 8 16.1 101.53   -6 LegendNANA
06:00 Legend Double Dagger -3.1 -4.7 89 29 9 16.1 101.53   -7 LegendNANA
07:00 Legend Double Dagger -3.3 -4.7 90 30 11 16.1 101.49   -8 LegendNANA
08:00 Legend Double Dagger -3.5 -5.4 87 31 5 16.1 101.46   -6 LegendNANA
09:00 Legend Double Dagger -3.2 -5.4 85 29 8 16.1 101.45   -6 LegendNANA
10:00 Legend Double Dagger -2.7 -5.6 81 29 9 16.1 101.46   -6 LegendNANA
11:00 Legend Double Dagger -2.6 -5.6 80 25 11 16.1 101.43   -7 LegendNANA
12:00 Legend Double Dagger -2.5 -5.4 81 27 13 16.1 101.41   -7 LegendNANA
13:00 Legend Double Dagger -2.1 -5.0 80 27 11 16.1 101.36   -6 LegendNANA
14:00 Legend Double Dagger -2.2 -5.3 79 27 11 16.1 101.36   -6 LegendNANA
15:00 Legend Double Dagger -2.3 -5.4 79 26 8 16.1 101.34   -5 LegendNANA
16:00 Legend Double Dagger -2.4 -5.9 77 28 13 16.1 101.35   -7 LegendNANA
17:00 Legend Double Dagger -2.6 -5.5 81 25 13 16.1 101.36   -7 LegendNANA
18:00 Legend Double Dagger -2.6 -5.5 81 26 9 16.1 101.35   -6 LegendNANA
19:00 Legend Double Dagger -2.8 -6.3 77 25 5 16.1 101.34   -5 LegendNANA
20:00 Legend Double Dagger -2.7 -5.8 79 28 13 16.1 101.30   -7 LegendNANA
21:00 Legend Double Dagger -2.8 -6.0 79 25 9 16.1 101.28   -6 LegendNANA
22:00 Legend Double Dagger -3.0 -5.8 81 LegendMM 5 16.1 101.25   -5 LegendNANA
23:00 Legend Double Dagger -3.2 -6.1 81 LegendMM 4 16.1 101.21   -5 LegendNANA

Notes on Data Quality.

Legend

  • E = Estimated
  • M = Missing
  • NA = Not Available
  • ‡ = Partner data that is not subject to review by the National Climate Archives
Date modified: